Starlink 30227

operational
NORAD ID: 57505 Int'l Des: 2023-113 Owner: SPXS Country: US Constellation: starlink
LEOCIRCULAR

Starlink 30227について

説明を読み込み中...

リアルタイム位置

3D地球を読み込み中...

次回通過

高度履歴

Altitude vs Time

uPlot chart will show altitude changes over time

軌道要素

1 57505U 23113L 25354.22363535 .00001681 00000-0 13951-3 0 9998
2 57505 43.0037 76.3526 0001457 271.5640 88.5036 15.02531237131859
Epoch: Dec 20, 2025 • Age: 11 hours

現在のステータス

高度 565.6 km
速度 7.58 km/s
衛星直下点 -27.92°S, 64.8°E
打ち上げ日 Aug 7, 2023
運用期間 2.3 years
タイプ internet

技術仕様

分類 Payload
質量 730.00 kg
乾燥質量 700.00 kg
総質量 730.00 kg
長さ 0.30 m
直径 4.10 m
スパン 29.00 m
形状 Box + pan
製造者 SPXS
バスタイプ Starlink V2M
フェーズステータス In Orbit
所有者/国 SPXS/US

大規模コンステレーション

Loading constellations...